Location: Carrer del Canonge
(41.4901°N, 2.2931°E)
Time: 14:04:13
(UTC+00:00)

Meteor 1-15 Rocket - Pass Details

Date: 18 September 2020
Orbit: 840 x 907 km, 81.2° (Epoch: 28 October)

Event Time Altitude Azimuth Distance (km) Brightness Sun altitude
Exits shadow 19:50:08 - 183° (S) 2,901 6.8 -21.9°
Reaches altitude 10° 19:51:16 10° 182° (S) 2,460 6.4 -22.1°
Maximum altitude 19:56:50 78° 97° (E) 878 4.1 -23.1°
Drops below altitude 10° 20:02:32 10° 12° (NNE) 2,515 6.8 -24.0°
Sets 20:05:00 0° 12° (NNE) 3,467 7.6 -24.4°
